Weather History for Dalaman, Turkey

Change the Weather History Date:

Wednesday, February 27, 2013

  Actual Average Record
Temperature  
Mean Temperature 54 °F -  
Max Temperature 64 °F 62 °F 68 °F (2004)
Min Temperature 44 °F 43 °F 37 °F (1997)
Degree Days  
Heating Degree Days 11    
Growing Degree Days 4 (Base 50)    
Moisture  
Dew Point 49 °F    
Average Humidity 80    
Maximum Humidity 100    
Minimum Humidity 56    
Precipitation  
Precipitation 0.00 in - - ()
Sea Level Pressure  
Sea Level Pressure 30.01 in    
Wind  
Wind Speed 7 mph ()    
Max Wind Speed 17 mph    
Max Gust Speed 23 mph    
Visibility 5.8 miles    
Events Rain    
Averages and records for this station are not official NWS values.
T = Trace of Precipitation, MM = Missing Value Source: Averaged Metar Reports

Daily Weather History Graph

Daily Weather History Graph

Search for Another Location

Airport:

Trip Planner

Search our weather history database for the weather conditions in past years. The results will help you decide how hot, cold, wet, or windy it might be!

Date:

Astronomy

Feb. 27, 2013 Rise Set
Actual Time 6:38 AM EET 5:57 PM EET
Civil Twilight 6:12 AM EET 6:23 PM EET
Nautical Twilight 5:42 AM EET 6:53 PM EET
Astronomical Twilight 5:12 AM EET 7:23 PM EET
Moon 7:52 PM EET (2/27) 7:06 AM EET (2/27)
Length of Visible Light 12h 11m
Length of Day
11h 19m
Full, 97% of the Moon is Illuminated
Feb 27
Full
Mar 4
Last Quarter
Mar 11
New
Mar 19
First Quarter
Mar 27
Full

Hourly Weather History & Observations

Time (EET) Temp. Windchill Dew Point Humidity Pressure Visibility Wind Dir Wind Speed Gust Speed Precip Events Conditions
12:20 AM 50.0 °F - 50.0 °F 100% 30.06 in - NE 5.8 mph - N/A   Clear
12:50 AM 51.8 °F - 50.0 °F 94% 30.06 in - East 5.8 mph - N/A   Clear
1:20 AM 51.8 °F - 50.0 °F 94% 30.06 in - ENE 5.8 mph - N/A   Clear
1:50 AM 50.0 °F - 48.2 °F 94% 30.06 in - NE 6.9 mph - N/A   Clear
2:00 AM 49 °F - 48 °F 96% 30.07 in 6 mi NE 6.9 mph - -  
2:20 AM 48.2 °F - 48.2 °F 100% 30.04 in - NE 4.6 mph - N/A   Clear
2:50 AM 48.2 °F - 46.4 °F 93% 30.04 in - NE 4.6 mph - N/A   Clear
3:20 AM 50.0 °F - 48.2 °F 94% 30.04 in - NE 6.9 mph - N/A   Clear
3:50 AM 48.2 °F - 48.2 °F 100% 30.04 in - NE 4.6 mph - N/A   Clear
4:20 AM 48.2 °F - 46.4 °F 93% 30.04 in - NNE 5.8 mph - N/A   Clear
4:50 AM 48.2 °F - 48.2 °F 100% 30.04 in - NNE 6.9 mph - N/A   Clear
5:20 AM 46.4 °F 43.5 °F 46.4 °F 100% 30.04 in - NE 5.8 mph - N/A   Clear
5:50 AM 46.4 °F 42.9 °F 46.4 °F 100% 30.04 in - NNE 6.9 mph - N/A   Clear
6:20 AM 48.2 °F - 46.4 °F 93% 30.04 in 3.7 mi NNE 8.1 mph - N/A   Unknown
6:50 AM 46.4 °F 42.4 °F 46.4 °F 100% 30.04 in 3.7 mi NE 8.1 mph - N/A   Unknown
7:20 AM 46.4 °F 42.9 °F 46.4 °F 100% 30.04 in 3.7 mi ENE 6.9 mph - N/A   Unknown
7:50 AM 48.2 °F - 46.4 °F 93% 30.04 in 3.7 mi ENE 4.6 mph - N/A   Unknown
8:00 AM 48 °F - 46 °F 89% 30.04 in 4 mi ENE 4.6 mph - -   Mist
8:20 AM 50.0 °F - 48.2 °F 94% 30.04 in 3.7 mi NE 4.6 mph - N/A   Unknown
8:50 AM 53.6 °F - 48.2 °F 82% 30.04 in - ENE 5.8 mph - N/A   Clear
9:20 AM 55.4 °F - 50.0 °F 82% 30.04 in - ENE 3.5 mph - N/A   Clear
9:50 AM 57.2 °F - 51.8 °F 82% 30.01 in - NE 3.5 mph - N/A   Clear
10:20 AM 62.6 °F - 53.6 °F 72% 30.04 in 6.2 mi Variable 1.2 mph - N/A   Partly Cloudy
10:50 AM 62.6 °F - 51.8 °F 68% 30.01 in - Variable 2.3 mph - N/A   Clear
11:20 AM 62.6 °F - 51.8 °F 68% 30.01 in 6.2 mi SW 8.1 mph - N/A   Partly Cloudy
11:50 AM 62.6 °F - 50.0 °F 63% 30.01 in 6.2 mi WSW 13.8 mph - N/A   Partly Cloudy
12:20 PM 62.6 °F - 53.6 °F 72% 30.01 in 6.2 mi WSW 13.8 mph - N/A   Partly Cloudy
12:50 PM 62.6 °F - 53.6 °F 72% 30.01 in 6.2 mi WSW 13.8 mph - N/A   Partly Cloudy
1:20 PM 62.6 °F - 51.8 °F 68% 30.01 in 6.2 mi WSW 15.0 mph - N/A   Partly Cloudy
1:50 PM 62.6 °F - 51.8 °F 68% 29.98 in 6.2 mi WSW 15.0 mph - N/A   Partly Cloudy
2:00 PM 63 °F - 51 °F 57% 30.00 in 6 mi WSW 15.0 mph - -   Scattered Clouds
2:20 PM 64.4 °F - 50.0 °F 59% 29.98 in 6.2 mi WSW 15.0 mph - N/A   Partly Cloudy
2:50 PM 62.6 °F - 51.8 °F 68% 29.98 in 6.2 mi WSW 15.0 mph - N/A   Partly Cloudy
3:20 PM 64.4 °F - 51.8 °F 64% 29.98 in 6.2 mi WSW 16.1 mph - N/A   Partly Cloudy
3:50 PM 62.6 °F - 51.8 °F 68% 29.98 in 6.2 mi WSW 16.1 mph - N/A   Partly Cloudy
4:20 PM 62.6 °F - 51.8 °F 68% 29.95 in 6.2 mi WSW 17.3 mph - N/A   Partly Cloudy
4:50 PM 62.6 °F - 51.8 °F 68% 29.95 in 6.2 mi West 15.0 mph - N/A   Partly Cloudy
5:20 PM 60.8 °F - 51.8 °F 72% 29.95 in 6.2 mi West 13.8 mph - N/A   Partly Cloudy
5:50 PM 60.8 °F - 50.0 °F 68% 29.95 in 6.2 mi West 12.7 mph - N/A   Scattered Clouds
6:20 PM 59.0 °F - 46.4 °F 63% 29.95 in 6.2 mi NNW 5.8 mph - N/A   Scattered Clouds
6:50 PM 57.2 °F - 44.6 °F 63% 29.95 in 6.2 mi North 9.2 mph - N/A   Scattered Clouds
7:20 PM 55.4 °F - 44.6 °F 67% 29.98 in 6.2 mi NNW 6.9 mph - N/A   Scattered Clouds
7:50 PM 55.4 °F - 46.4 °F 72% 29.98 in 6.2 mi NE 4.6 mph - N/A   Mostly Cloudy
8:00 PM 56 °F - 45 °F 56% 29.99 in 6 mi NE 4.6 mph - -   Partly Cloudy
8:20 PM 53.6 °F - 46.4 °F 77% 29.98 in 6.2 mi NE 5.8 mph - N/A   Mostly Cloudy
8:50 PM 53.6 °F - 46.4 °F 77% 29.98 in 6.2 mi Calm Calm - N/A   Mostly Cloudy
9:20 PM 53.6 °F - 44.6 °F 72% 29.98 in 6.2 mi NNW 10.4 mph - N/A   Mostly Cloudy
9:50 PM 51.8 °F - 46.4 °F 82% 29.98 in 6.2 mi ENE 3.5 mph - N/A   Mostly Cloudy
10:20 PM 51.8 °F - 46.4 °F 82% 29.98 in 6.2 mi North 3.5 mph - N/A   Mostly Cloudy
10:50 PM 51.8 °F - 42.8 °F 71% 29.98 in 6.2 mi NNW 10.4 mph 23.0 mph N/A Rain Light Rain Showers
11:20 PM 50.0 °F - 46.4 °F 87% 29.98 in 6.2 mi NNE 5.8 mph - N/A   Mostly Cloudy
11:50 PM 50.0 °F - 44.6 °F 82% 29.98 in 6.2 mi North 9.2 mph - N/A   Mostly Cloudy